Time,TemperatureF,DewpointF,PressureIn,WindDirection,WindDirectionDegrees,WindSpeedMPH,WindSpeedGustMPH,Humidity,HourlyPrecipIn,Conditions,Clouds,dailyrainin,SoftwareType,DateUTC
2013-08-14 00:12:00,81.0,78.0,29.82,WSW,242,1.0,5.0,92,0.00,,,0.13,,2013-08-14 04:12:00,
2013-08-14 00:23:00,80.0,77.0,29.82,SSW,197,1.0,3.0,92,0.00,,,0.13,,2013-08-14 04:23:00,
2013-08-14 00:52:00,80.0,77.0,29.81,West,270,1.0,2.0,92,0.00,,,0.13,,2013-08-14 04:52:00,
2013-08-14 01:12:00,80.0,78.0,29.81,West,280,0.0,2.0,93,0.00,,,0.13,,2013-08-14 05:12:00,
2013-08-14 01:22:00,80.0,78.0,29.82,West,274,0.0,2.0,93,0.00,,,0.13,,2013-08-14 05:22:00,
2013-08-14 01:42:00,79.0,77.0,29.82,WNW,283,0.0,2.0,93,0.00,,,0.13,,2013-08-14 05:42:00,
2013-08-14 01:52:00,78.0,75.0,29.83,SSW,210,0.0,2.0,92,0.00,,,0.13,,2013-08-14 05:52:00,
2013-08-14 02:11:00,77.0,75.0,29.84,SSW,203,1.0,4.0,93,0.19,,,0.32,,2013-08-14 06:11:00,
2013-08-14 02:21:00,75.0,73.0,29.81,SE,131,0.0,3.0,94,0.63,,,0.76,,2013-08-14 06:21:00,
2013-08-14 02:42:00,74.0,73.0,29.81,West,267,0.0,2.0,96,0.65,,,0.78,,2013-08-14 06:42:00,
2013-08-14 02:52:00,75.0,74.0,29.81,West,266,1.0,4.0,97,0.66,,,0.79,,2013-08-14 06:52:00,
2013-08-14 03:11:00,76.0,75.0,29.80,SW,214,8.0,11.0,97,0.47,,,0.80,,2013-08-14 07:11:00,
2013-08-14 03:21:00,76.0,75.0,29.80,WSW,238,4.0,11.0,97,0.04,,,0.80,,2013-08-14 07:21:00,
2013-08-14 03:52:00,76.0,75.0,29.80,WSW,238,5.0,10.0,97,0.01,,,0.80,,2013-08-14 07:52:00,
2013-08-14 04:11:00,76.0,75.0,29.79,West,271,0.0,2.0,97,0.00,,,0.80,,2013-08-14 08:11:00,
2013-08-14 04:21:00,75.0,74.0,29.79,West,270,0.0,3.0,97,0.00,,,0.80,,2013-08-14 08:21:00,
2013-08-14 04:52:00,75.0,74.0,29.79,West,277,0.0,2.0,98,0.00,,,0.80,,2013-08-14 08:52:00,
2013-08-14 05:11:00,75.0,74.0,29.80,WSW,256,0.0,1.0,98,0.00,,,0.80,,2013-08-14 09:11:00,
2013-08-14 05:21:00,75.0,74.0,29.80,West,276,0.0,1.0,98,0.00,,,0.80,,2013-08-14 09:21:00,
2013-08-14 05:53:00,75.0,74.0,29.81,West,274,0.0,2.0,98,0.00,,,0.79,,2013-08-14 09:53:00,
2013-08-14 06:12:00,75.0,74.0,29.82,West,265,0.0,1.0,98,0.00,,,0.79,,2013-08-14 10:12:00,
2013-08-14 06:23:00,75.0,74.0,29.83,West,262,0.0,1.0,98,0.00,,,0.79,,2013-08-14 10:23:00,
2013-08-14 06:52:00,75.0,74.0,29.84,ENE,73,0.0,0.0,98,0.00,,,0.70,,2013-08-14 10:52:00,
2013-08-14 07:11:00,75.0,74.0,29.84,North,6,0.0,1.0,98,0.00,,,0.70,,2013-08-14 11:11:00,
2013-08-14 07:21:00,74.0,73.0,29.84,SW,221,0.0,1.0,98,0.00,,,0.70,,2013-08-14 11:21:00,
2013-08-14 07:42:00,74.0,73.0,29.84,SSE,153,0.0,0.0,98,0.00,,,0.69,,2013-08-14 11:42:00,
2013-08-14 07:52:00,74.0,73.0,29.85,WNW,291,0.0,1.0,98,0.00,,,0.69,,2013-08-14 11:52:00,
2013-08-14 08:11:00,74.0,73.0,29.85,West,274,0.0,2.0,98,0.00,,,0.69,,2013-08-14 12:11:00,
2013-08-14 08:21:00,74.0,73.0,29.86,WNW,301,0.0,1.0,98,0.00,,,0.69,,2013-08-14 12:21:00,
2013-08-14 08:42:00,74.0,73.0,29.86,WNW,297,0.0,1.0,98,0.00,,,0.69,,2013-08-14 12:42:00,
2013-08-14 08:52:00,75.0,74.0,29.88,SSE,156,0.0,1.0,98,0.00,,,0.69,,2013-08-14 12:52:00,
2013-08-14 09:11:00,75.0,74.0,29.89,NW,316,0.0,3.0,98,0.00,,,0.69,,2013-08-14 13:11:00,
2013-08-14 09:22:00,76.0,75.0,29.89,NW,304,0.0,4.0,98,0.00,,,0.69,,2013-08-14 13:22:00,
2013-08-14 09:52:00,75.0,74.0,29.90,WNW,298,0.0,2.0,97,0.00,,,0.69,,2013-08-14 13:52:00,
2013-08-14 10:11:00,75.0,74.0,29.90,WNW,293,1.0,4.0,97,0.00,,,0.69,,2013-08-14 14:11:00,
2013-08-14 10:22:00,74.0,73.0,29.91,NW,315,0.0,3.0,97,0.00,,,0.69,,2013-08-14 14:22:00,
2013-08-14 10:32:00,74.0,73.0,29.91,NW,315,0.0,3.0,97,0.00,,,0.69,,2013-08-14 14:32:00,
2013-08-14 10:52:00,74.0,73.0,29.93,NW,320,0.0,3.0,97,0.00,,,0.69,,2013-08-14 14:52:00,
2013-08-14 11:12:00,74.0,73.0,29.93,NNW,333,0.0,5.0,97,0.00,,,0.69,,2013-08-14 15:12:00,
2013-08-14 11:22:00,75.0,74.0,29.93,West,281,0.0,4.0,96,0.00,,,0.69,,2013-08-14 15:22:00,
2013-08-14 11:43:00,74.0,73.0,29.94,West,278,1.0,5.0,96,0.00,,,0.69,,2013-08-14 15:43:00,
2013-08-14 11:57:00,75.0,73.0,29.94,East,90,1.0,3.0,95,0.00,,,0.69,,2013-08-14 15:57:00,
2013-08-14 12:13:00,75.0,73.0,29.94,WNW,300,0.0,3.0,94,0.00,,,0.69,,2013-08-14 16:13:00,
2013-08-14 12:28:00,75.0,73.0,29.95,North,1,1.0,5.0,92,0.00,,,0.69,,2013-08-14 16:28:00,
2013-08-14 12:43:00,76.0,73.0,29.95,West,266,0.0,4.0,91,0.00,,,0.69,,2013-08-14 16:43:00,
2013-08-14 13:05:00,75.0,72.0,29.95,NNE,16,0.0,3.0,89,0.00,,,0.69,,2013-08-14 17:05:00,
2013-08-14 13:20:00,75.0,72.0,29.95,WNW,290,1.0,3.0,89,0.00,,,0.69,,2013-08-14 17:20:00,
2013-08-14 13:29:00,75.0,71.0,29.95,WSW,243,1.0,5.0,87,0.00,,,0.69,,2013-08-14 17:29:00,
2013-08-14 13:55:00,76.0,71.0,29.94,NE,36,0.0,4.0,85,0.00,,,0.69,,2013-08-14 17:55:00,
2013-08-14 14:31:00,-999.0,-99.9,29.95,NW,320,0.0,4.0,84,0.00,,,0.69,,2013-08-14 18:31:00,
2013-08-14 15:03:00,76.0,70.0,29.97,NW,321,0.0,2.0,81,0.00,,,0.68,,2013-08-14 19:03:00,
2013-08-14 15:14:00,76.0,69.0,29.96,North,360,0.0,1.0,80,0.00,,,0.68,,2013-08-14 19:14:00,
2013-08-14 15:34:00,75.0,68.0,29.96,NNW,332,0.0,2.0,78,0.00,,,0.68,,2013-08-14 19:34:00,
2013-08-14 15:42:00,74.0,67.0,29.96,NW,308,0.0,4.0,78,0.00,,,0.68,,2013-08-14 19:42:00,
2013-08-14 15:58:00,74.0,67.0,29.97,WNW,301,0.0,2.0,80,0.00,,,0.68,,2013-08-14 19:58:00,
2013-08-14 16:12:00,74.0,67.0,29.96,NW,316,2.0,5.0,79,0.00,,,0.68,,2013-08-14 20:12:00,
2013-08-14 16:49:00,73.0,67.0,29.96,WNW,302,0.0,3.0,81,0.00,,,0.67,,2013-08-14 20:49:00,
2013-08-14 17:13:00,72.0,65.0,29.97,NW,321,1.0,4.0,79,0.00,,,0.67,,2013-08-14 21:13:00,
2013-08-14 17:24:00,73.0,66.0,29.96,NNE,16,1.0,3.0,78,0.00,,,0.67,,2013-08-14 21:24:00,
2013-08-14 17:45:00,73.0,66.0,29.98,NW,325,0.0,4.0,78,0.00,,,0.67,,2013-08-14 21:45:00,
2013-08-14 17:55:00,72.0,65.0,29.98,NW,312,0.0,3.0,78,0.00,,,0.67,,2013-08-14 21:55:00,
2013-08-14 18:13:00,72.0,65.0,29.98,NW,311,0.0,2.0,79,0.00,,,0.67,,2013-08-14 22:13:00,
2013-08-14 18:23:00,72.0,65.0,29.99,ESE,120,0.0,1.0,80,0.00,,,0.67,,2013-08-14 22:23:00,
2013-08-14 18:55:00,71.0,66.0,29.98,NW,311,0.0,1.0,83,0.00,,,0.67,,2013-08-14 22:55:00,
2013-08-14 19:06:00,71.0,66.0,29.98,NW,311,0.0,1.0,83,0.00,,,0.67,,2013-08-14 23:06:00,
2013-08-14 19:13:00,71.0,66.0,29.98,NW,311,0.0,1.0,83,0.00,,,0.67,,2013-08-14 23:13:00,
2013-08-14 19:25:00,70.0,64.0,29.98,WNW,290,0.0,2.0,81,0.00,,,0.67,,2013-08-14 23:25:00,
2013-08-14 19:46:00,70.0,64.0,29.98,WNW,289,0.0,1.0,81,0.00,,,0.67,,2013-08-14 23:46:00,
2013-08-14 19:56:00,70.0,64.0,29.99,WNW,300,0.0,1.0,82,0.00,,,0.67,,2013-08-14 23:56:00,
2013-08-14 20:12:00,70.0,65.0,30.01,WNW,297,0.0,1.0,84,0.00,,,0.67,,2013-08-15 00:12:00,
2013-08-14 20:23:00,70.0,65.0,30.02,WNW,301,0.0,1.0,85,0.00,,,0.67,,2013-08-15 00:23:00,
2013-08-14 20:43:00,69.0,64.0,30.01,WNW,295,0.0,1.0,85,0.00,,,0.67,,2013-08-15 00:43:00,
2013-08-14 20:52:00,69.0,65.0,30.02,NW,316,0.0,1.0,86,0.00,,,0.67,,2013-08-15 00:52:00,
2013-08-14 21:16:00,69.0,65.0,30.02,NW,316,0.0,1.0,86,0.00,,,0.67,,2013-08-15 01:16:00,
2013-08-14 21:22:00,69.0,65.0,30.02,NW,311,0.0,1.0,86,0.00,,,0.67,,2013-08-15 01:22:00,
2013-08-14 21:42:00,69.0,65.0,30.03,NW,323,0.0,1.0,86,0.00,,,0.67,,2013-08-15 01:42:00,
2013-08-14 21:52:00,69.0,65.0,30.04,NW,316,0.0,1.0,86,0.00,,,0.67,,2013-08-15 01:52:00,
2013-08-14 22:11:00,69.0,65.0,30.06,NW,319,0.0,2.0,86,0.00,,,0.67,,2013-08-15 02:11:00,
2013-08-14 22:21:00,69.0,65.0,30.06,NW,319,0.0,0.0,87,0.00,,,0.67,,2013-08-15 02:21:00,
2013-08-14 23:22:00,68.0,63.0,30.05,WNW,295,0.0,1.0,83,0.00,,,0.67,,2013-08-15 03:22:00,
2013-08-14 23:53:00,68.0,62.0,30.04,WNW,295,0.0,1.0,82,0.00,,,0.67,,2013-08-15 03:53:00,